TimeEDT,TemperatureF,Dew PointF,Humidity,Sea Level PressureIn,VisibilityMPH,Wind Direction,Wind SpeedMPH,Gust SpeedMPH,PrecipitationIn,Events,Conditions,WindDirDegrees,DateUTC
12:14 AM,63.7,61.7,93,29.82,7.0,SW,13.8,20.7,N/A,,Overcast,220,2012-10-14 04:14:00
12:34 AM,63.7,61.7,93,29.82,4.0,SW,13.8,21.9,N/A,,Drizzle,230,2012-10-14 04:34:00
1:14 AM,63.5,61.7,94,29.80,4.0,SW,10.4,-,N/A,,Drizzle,230,2012-10-14 05:14:00
1:34 AM,63.5,61.7,94,29.80,4.0,SW,12.7,18.4,0.01,,Drizzle,220,2012-10-14 05:34:00
1:54 AM,63.7,61.9,94,29.80,5.0,SW,10.4,-,0.01,,Light Drizzle,230,2012-10-14 05:54:00
2:14 AM,63.9,61.9,93,29.80,5.0,SW,15.0,-,0.01,Rain,Heavy Rain,230,2012-10-14 06:14:00
2:34 AM,63.7,62.1,94,29.79,4.0,SW,9.2,-,0.10,Rain,Rain,220,2012-10-14 06:34:00
2:54 AM,63.7,61.9,94,29.80,5.0,SSW,11.5,-,0.11,Rain,Light Rain,210,2012-10-14 06:54:00
3:14 AM,63.5,61.7,94,29.80,5.0,SW,11.5,-,0.01,Rain,Rain,220,2012-10-14 07:14:00
3:34 AM,63.5,61.9,94,29.79,5.0,SW,10.4,-,0.03,Rain,Light Rain,220,2012-10-14 07:34:00
3:54 AM,63.9,61.7,93,29.78,5.0,SW,11.5,-,0.03,,Overcast,220,2012-10-14 07:54:00
4:14 AM,63.9,61.7,93,29.78,5.0,SSW,10.4,-,N/A,,Overcast,210,2012-10-14 08:14:00
4:34 AM,63.5,61.5,93,29.77,5.0,SW,9.2,-,N/A,,Overcast,220,2012-10-14 08:34:00
4:54 AM,63.7,61.7,93,29.77,5.0,SSW,9.2,-,N/A,Rain,Rain,210,2012-10-14 08:54:00
5:14 AM,63.5,61.7,94,29.77,5.0,SSW,11.5,-,N/A,Rain,Light Rain,200,2012-10-14 09:14:00
5:34 AM,63.5,61.7,94,29.77,5.0,SSW,12.7,16.1,0.01,Rain,Rain,200,2012-10-14 09:34:00
5:54 AM,63.5,61.7,94,29.76,5.0,SSW,10.4,-,0.01,Rain,Rain,210,2012-10-14 09:54:00
6:14 AM,63.5,61.9,94,29.76,5.0,SSW,9.2,-,0.01,Rain,Rain,200,2012-10-14 10:14:00
6:34 AM,63.5,61.9,94,29.75,3.0,SSW,10.4,-,0.10,Rain,Heavy Rain,200,2012-10-14 10:34:00
6:54 AM,63.5,62.1,95,29.74,4.0,South,8.1,-,0.21,Rain,Rain,180,2012-10-14 10:54:00
7:14 AM,63.5,62.1,95,29.73,4.0,South,10.4,-,0.03,Rain,Rain,190,2012-10-14 11:14:00
7:34 AM,63.7,62.1,94,29.72,5.0,South,12.7,18.4,0.07,Rain,Rain,190,2012-10-14 11:34:00
7:54 AM,63.7,62.1,94,29.72,5.0,SSW,11.5,17.3,0.10,Rain,Light Rain,200,2012-10-14 11:54:00
8:14 AM,63.9,62.1,94,29.71,5.0,SSW,8.1,-,0.02,Rain,Rain,200,2012-10-14 12:14:00
8:34 AM,63.9,62.1,94,29.70,5.0,South,8.1,-,0.03,,Overcast,180,2012-10-14 12:34:00
8:54 AM,64.0,62.2,94,29.69,5.0,South,8.1,-,0.03,,Overcast,180,2012-10-14 12:54:00
9:14 AM,64.8,62.2,92,29.67,7.0,South,10.4,-,N/A,,Overcast,170,2012-10-14 13:14:00
9:34 AM,65.3,62.2,90,29.65,7.0,South,11.5,-,N/A,Rain,Light Rain,170,2012-10-14 13:34:00
9:54 AM,64.8,62.6,93,29.64,5.0,SSE,11.5,-,N/A,Rain,Rain,160,2012-10-14 13:54:00
10:14 AM,64.4,62.6,94,29.62,5.0,South,11.5,17.3,0.01,Rain,Light Rain,170,2012-10-14 14:14:00
10:34 AM,64.8,62.2,92,29.61,7.0,South,15.0,21.9,0.02,Rain,Light Rain,170,2012-10-14 14:34:00
10:54 AM,65.3,61.9,89,29.60,10.0,South,15.0,19.6,0.02,,Overcast,180,2012-10-14 14:54:00
11:14 AM,66.0,61.9,86,29.59,10.0,South,16.1,21.9,N/A,,Overcast,190,2012-10-14 15:14:00
11:34 AM,66.0,61.5,85,29.59,10.0,SSW,16.1,26.5,N/A,Rain,Light Rain,200,2012-10-14 15:34:00
11:54 AM,66.2,61.7,85,29.59,10.0,SSW,19.6,25.3,N/A,,Overcast,200,2012-10-14 15:54:00
12:14 PM,67.1,61.9,83,29.59,10.0,SSW,18.4,25.3,N/A,,Overcast,200,2012-10-14 16:14:00
12:34 PM,67.1,61.5,82,29.58,10.0,South,20.7,25.3,N/A,,Overcast,190,2012-10-14 16:34:00
12:54 PM,67.3,60.8,80,29.57,10.0,South,23.0,28.8,N/A,,Overcast,190,2012-10-14 16:54:00
1:14 PM,67.8,60.8,78,29.57,10.0,SSW,20.7,26.5,N/A,,Overcast,200,2012-10-14 17:14:00
1:34 PM,68.9,60.8,75,29.56,10.0,SSW,24.2,31.1,N/A,,Overcast,200,2012-10-14 17:34:00
1:54 PM,69.1,60.3,73,29.54,10.0,South,17.3,27.6,N/A,,Overcast,190,2012-10-14 17:54:00
2:14 PM,67.3,60.8,80,29.52,5.0,SSW,16.1,29.9,0.01,Rain,Light Rain,210,2012-10-14 18:14:00
2:34 PM,66.9,61.3,82,29.51,10.0,SW,13.8,21.9,0.01,Rain,Light Rain,220,2012-10-14 18:34:00
2:54 PM,69.1,59.9,72,29.49,10.0,SSW,17.3,28.8,0.01,,Overcast,210,2012-10-14 18:54:00
3:14 PM,69.4,59.2,70,29.48,10.0,SSW,17.3,27.6,N/A,,Overcast,200,2012-10-14 19:14:00
3:34 PM,66.7,60.8,81,29.48,7.0,SSW,19.6,28.8,N/A,Rain,Rain,200,2012-10-14 19:34:00
4:14 PM,67.1,58.8,75,29.46,10.0,SSW,29.9,38.0,N/A,,Clear,200,2012-10-14 20:14:00
4:34 PM,68.0,59.5,74,29.45,10.0,SSW,19.6,31.1,N/A,,Scattered Clouds,200,2012-10-14 20:34:00
4:54 PM,67.5,59.7,76,29.44,10.0,SSW,15.0,27.6,N/A,,Scattered Clouds,200,2012-10-14 20:54:00
5:14 PM,68.0,59.5,74,29.43,10.0,SSW,15.0,21.9,N/A,,Scattered Clouds,200,2012-10-14 21:14:00
5:34 PM,69.8,57.2,64,29.42,10.0,SSW,19.6,26.5,N/A,,Scattered Clouds,210,2012-10-14 21:34:00
5:54 PM,70.0,55.4,60,29.42,10.0,SSW,17.3,26.5,N/A,,Clear,200,2012-10-14 21:54:00
6:14 PM,69.4,53.6,57,29.42,10.0,SSW,19.6,28.8,N/A,,Scattered Clouds,210,2012-10-14 22:14:00
6:34 PM,66.7,56.7,70,29.42,7.0,SSW,19.6,27.6,0.01,Rain,Heavy Rain,210,2012-10-14 22:34:00
6:54 PM,65.1,56.8,75,29.45,7.0,WSW,35.7,42.6,0.02,Rain,Rain,250,2012-10-14 22:54:00
7:14 PM,58.1,55.4,91,29.44,7.0,West,16.1,25.3,0.05,Rain,Rain,260,2012-10-14 23:14:00
7:34 PM,57.9,55.4,91,29.43,10.0,WSW,10.4,19.6,0.07,Rain,Light Rain,250,2012-10-14 23:34:00
7:54 PM,57.6,55.2,92,29.43,10.0,WSW,8.1,-,0.09,Rain,Light Rain,240,2012-10-14 23:54:00
8:14 PM,57.2,55.4,94,29.42,10.0,SW,6.9,-,0.03,Rain,Rain,230,2012-10-15 00:14:00
8:34 PM,57.0,55.4,94,29.41,10.0,SW,6.9,-,0.05,Rain,Light Rain,230,2012-10-15 00:34:00
8:54 PM,56.8,55.4,95,29.40,7.0,SW,5.8,-,0.08,Rain,Rain,230,2012-10-15 00:54:00
9:14 PM,56.8,55.6,96,29.41,7.0,WSW,8.1,-,0.02,Rain,Rain,240,2012-10-15 01:14:00
9:34 PM,57.0,55.8,96,29.41,7.0,West,12.7,16.1,0.03,,Drizzle,260,2012-10-15 01:34:00
9:54 PM,56.1,54.7,95,29.42,5.0,West,19.6,23.0,0.05,Rain,Rain,280,2012-10-15 01:54:00
10:14 PM,54.7,52.9,94,29.44,5.0,WNW,21.9,29.9,0.01,,Heavy Drizzle,290,2012-10-15 02:14:00
10:34 PM,53.6,51.8,94,29.46,10.0,WNW,15.0,23.0,0.01,Rain,Rain,300,2012-10-15 02:34:00
10:54 PM,52.2,50.2,93,29.48,5.0,WNW,23.0,26.5,0.01,Rain,Rain,290,2012-10-15 02:54:00
11:14 PM,51.8,49.1,90,29.50,7.0,WNW,18.4,25.3,N/A,Rain,Rain,290,2012-10-15 03:14:00
11:34 PM,51.3,48.6,90,29.53,10.0,WNW,19.6,26.5,N/A,Rain,Light Rain,290,2012-10-15 03:34:00
11:54 PM,50.9,47.8,89,29.54,10.0,WNW,17.3,24.2,N/A,,Overcast,290,2012-10-15 03:54:00